Year,Month,Day,Hour,Minute,Value (Times are PST for temperature in C)
2014,09,25,09,14,13.00
2014,09,25,09,15,13.00
2014,09,25,09,16,12.90
2014,09,25,09,17,12.80
2014,09,25,09,18,12.80
2014,09,25,09,19,12.80
2014,09,25,09,20,12.80
2014,09,25,09,21,12.80
2014,09,25,09,22,12.90
2014,09,25,09,23,12.90
2014,09,25,09,24,13.00
2014,09,25,09,25,13.00
2014,09,25,09,26,13.00
2014,09,25,09,27,13.10
2014,09,25,09,28,13.10
2014,09,25,09,29,13.20
2014,09,25,09,30,13.20
2014,09,25,09,31,13.30
2014,09,25,09,32,13.30
2014,09,25,09,33,13.40
2014,09,25,09,34,13.40
2014,09,25,09,35,13.50
2014,09,25,09,36,13.60
2014,09,25,09,37,13.60
2014,09,25,09,38,13.70
2014,09,25,09,39,13.70
2014,09,25,09,40,13.80
2014,09,25,09,41,13.80
2014,09,25,09,42,13.90
2014,09,25,09,43,13.90
2014,09,25,09,44,13.90
2014,09,25,09,45,13.80
2014,09,25,09,46,13.70
2014,09,25,09,47,13.60
2014,09,25,09,48,13.60
2014,09,25,09,49,13.50
2014,09,25,09,50,13.50
2014,09,25,09,51,13.40
2014,09,25,09,52,13.30
2014,09,25,09,53,13.30
2014,09,25,09,54,13.30
2014,09,25,09,55,13.30
2014,09,25,09,56,13.30
2014,09,25,09,57,13.30
2014,09,25,09,58,13.30
2014,09,25,09,59,13.30
2014,09,25,10,00,13.40
2014,09,25,10,01,13.50
2014,09,25,10,02,13.50
2014,09,25,10,03,13.60
2014,09,25,10,04,13.70
2014,09,25,10,05,13.70
2014,09,25,10,06,13.80
2014,09,25,10,07,13.80
2014,09,25,10,08,13.70
2014,09,25,10,09,13.70
2014,09,25,10,10,13.70
2014,09,25,10,11,13.70
2014,09,25,10,12,13.70
2014,09,25,10,13,13.80
2014,09,25,10,14,13.80
2014,09,25,10,15,13.90
2014,09,25,10,16,13.90
2014,09,25,10,17,13.80
2014,09,25,10,18,13.70
2014,09,25,10,19,13.70
2014,09,25,10,20,13.70
2014,09,25,10,21,13.70
2014,09,25,10,22,13.60
2014,09,25,10,23,13.50
2014,09,25,10,24,13.40
2014,09,25,10,25,13.30
2014,09,25,10,26,13.10
2014,09,25,10,27,13.10
2014,09,25,10,28,13.10
2014,09,25,10,29,13.10
2014,09,25,10,30,13.10
2014,09,25,10,31,13.10
2014,09,25,10,32,13.10
2014,09,25,10,33,13.10
2014,09,25,10,34,13.10
2014,09,25,10,35,13.10
2014,09,25,10,36,13.20
2014,09,25,10,37,13.20
2014,09,25,10,38,13.40
2014,09,25,10,39,13.40
2014,09,25,10,40,13.50
2014,09,25,10,41,13.50
2014,09,25,10,42,13.40
2014,09,25,10,43,13.50
2014,09,25,10,44,13.50
2014,09,25,10,45,13.60
2014,09,25,10,46,13.60
2014,09,25,10,47,13.70
2014,09,25,10,48,13.70
2014,09,25,10,49,13.70
2014,09,25,10,50,13.70
2014,09,25,10,51,13.70
2014,09,25,10,52,13.70
2014,09,25,10,53,13.70
2014,09,25,10,54,13.70
2014,09,25,10,55,13.70
2014,09,25,10,56,13.70
2014,09,25,10,57,13.70
2014,09,25,10,58,13.80
2014,09,25,10,59,13.80
2014,09,25,11,00,13.80
2014,09,25,11,01,13.80
2014,09,25,11,02,13.70
2014,09,25,11,03,13.70
2014,09,25,11,04,13.50
2014,09,25,11,05,13.40
2014,09,25,11,06,13.40
2014,09,25,11,07,13.30
2014,09,25,11,08,13.30
2014,09,25,11,09,13.30
2014,09,25,11,10,13.30
2014,09,25,11,11,13.40
2014,09,25,11,12,13.30
2014,09,25,11,13,13.30
2014,09,25,11,14,13.30
2014,09,25,11,15,13.30
2014,09,25,11,16,13.30
2014,09,25,11,17,13.30
2014,09,25,11,18,13.30
2014,09,25,11,19,13.30
2014,09,25,11,20,13.30
2014,09,25,11,21,13.40
2014,09,25,11,22,13.30
2014,09,25,11,23,13.30
2014,09,25,11,24,13.30
2014,09,25,11,25,13.30
2014,09,25,11,26,13.30
2014,09,25,11,27,13.30
2014,09,25,11,28,13.40
2014,09,25,11,29,13.40
2014,09,25,11,30,13.40
2014,09,25,11,31,13.40
2014,09,25,11,32,13.50
2014,09,25,11,33,13.50
2014,09,25,11,34,13.50
2014,09,25,11,35,13.50
2014,09,25,11,36,13.50
2014,09,25,11,37,13.50
2014,09,25,11,38,13.60
2014,09,25,11,39,13.70
2014,09,25,11,40,13.70
2014,09,25,11,41,13.70
2014,09,25,11,42,13.80
2014,09,25,11,43,13.80
2014,09,25,11,44,13.70
2014,09,25,11,45,13.80
2014,09,25,11,46,13.80
2014,09,25,11,47,13.90
2014,09,25,11,48,13.90
2014,09,25,11,49,13.90
2014,09,25,11,50,13.90
2014,09,25,11,51,13.90
2014,09,25,11,52,13.80
2014,09,25,11,53,13.70
2014,09,25,11,54,13.70
2014,09,25,11,55,13.70
2014,09,25,11,56,13.70
2014,09,25,11,57,13.80
2014,09,25,11,58,13.90
2014,09,25,11,59,13.80
2014,09,25,12,00,13.80
2014,09,25,12,01,13.70
2014,09,25,12,02,13.70
2014,09,25,12,03,13.70
2014,09,25,12,04,13.70
2014,09,25,12,05,13.70
2014,09,25,12,06,13.70
2014,09,25,12,07,13.80
2014,09,25,12,08,13.90
2014,09,25,12,09,13.90
2014,09,25,12,10,13.80
2014,09,25,12,11,13.70
2014,09,25,12,12,13.70
2014,09,25,12,13,13.70
2014,09,25,12,14,13.80
2014,09,25,12,15,13.80
2014,09,25,12,16,14.00
2014,09,25,12,17,14.20
2014,09,25,12,18,14.30
2014,09,25,12,19,14.30
2014,09,25,12,20,14.20
2014,09,25,12,21,14.20
2014,09,25,12,22,14.20
2014,09,25,12,23,14.20
2014,09,25,12,24,14.00
2014,09,25,12,25,13.70
2014,09,25,12,26,13.50
2014,09,25,12,27,13.30
2014,09,25,12,28,13.10
2014,09,25,12,29,13.00
2014,09,25,12,30,12.90
2014,09,25,12,31,12.80
2014,09,25,12,32,12.80
2014,09,25,12,33,12.70
2014,09,25,12,34,12.70
2014,09,25,12,35,12.60
2014,09,25,12,36,12.60
2014,09,25,12,37,12.70
2014,09,25,12,38,12.90
2014,09,25,12,39,12.90
2014,09,25,12,40,13.00
2014,09,25,12,41,13.10
2014,09,25,12,42,13.10
2014,09,25,12,43,13.20
2014,09,25,12,44,13.20
2014,09,25,12,45,13.30
2014,09,25,12,46,13.30
2014,09,25,12,47,13.40
2014,09,25,12,48,13.60
2014,09,25,12,49,13.60
2014,09,25,12,50,13.70
2014,09,25,12,51,13.80
2014,09,25,12,52,13.90
2014,09,25,12,53,14.00
2014,09,25,12,54,14.10
2014,09,25,12,55,14.20
2014,09,25,12,56,14.20
2014,09,25,12,57,14.30
2014,09,25,12,58,14.50
2014,09,25,12,59,14.50
2014,09,25,13,00,14.60
2014,09,25,13,01,14.60
2014,09,25,13,02,14.60
2014,09,25,13,03,14.60
2014,09,25,13,04,14.60
2014,09,25,13,05,14.50
2014,09,25,13,06,14.50
2014,09,25,13,07,14.50
2014,09,25,13,08,14.40
2014,09,25,13,09,14.40
2014,09,25,13,10,14.30
2014,09,25,13,11,14.20
2014,09,25,13,12,14.00
2014,09,25,13,13,13.90
2014,09,25,13,14,13.80
2014,09,25,13,15,13.70
2014,09,25,13,16,13.60
2014,09,25,13,17,13.50
2014,09,25,13,18,13.30
2014,09,25,13,19,13.30
2014,09,25,13,20,13.30
2014,09,25,13,21,13.20
2014,09,25,13,22,13.20
2014,09,25,13,23,13.00
2014,09,25,13,24,13.00
2014,09,25,13,25,13.00
2014,09,25,13,26,13.10
2014,09,25,13,27,13.20
2014,09,25,13,28,13.30
2014,09,25,13,29,13.20
2014,09,25,13,30,13.20
2014,09,25,13,31,13.30
2014,09,25,13,32,13.50
2014,09,25,13,33,13.50
2014,09,25,13,34,13.40
2014,09,25,13,35,13.30
2014,09,25,13,36,13.40
2014,09,25,13,37,13.30
2014,09,25,13,38,13.30
2014,09,25,13,39,13.30
2014,09,25,13,40,13.30
2014,09,25,13,41,13.30
2014,09,25,13,42,13.30
2014,09,25,13,43,13.30
2014,09,25,13,44,13.40
2014,09,25,13,45,13.40
2014,09,25,13,46,13.40
2014,09,25,13,47,13.40
2014,09,25,13,48,13.40
2014,09,25,13,49,13.30
2014,09,25,13,50,13.20
2014,09,25,13,51,13.20
2014,09,25,13,52,13.10
2014,09,25,13,53,13.10
2014,09,25,13,54,13.10
2014,09,25,13,55,13.20
2014,09,25,13,56,13.30
2014,09,25,13,57,13.50
2014,09,25,13,58,13.50
2014,09,25,13,59,13.50
2014,09,25,14,00,13.50
2014,09,25,14,01,13.50
2014,09,25,14,02,13.40
2014,09,25,14,03,13.30
2014,09,25,14,04,13.20
2014,09,25,14,05,13.10
2014,09,25,14,06,13.10
2014,09,25,14,07,13.10
2014,09,25,14,08,13.10
2014,09,25,14,09,13.10
2014,09,25,14,10,13.10
2014,09,25,14,11,13.10
2014,09,25,14,12,13.20
2014,09,25,14,13,13.20
2014,09,25,14,14,13.20
2014,09,25,14,15,13.20
2014,09,25,14,16,13.20
2014,09,25,14,17,13.20
2014,09,25,14,18,13.20
2014,09,25,14,19,13.20
2014,09,25,14,20,13.20
2014,09,25,14,21,13.20
2014,09,25,14,22,13.10
2014,09,25,14,23,13.10
2014,09,25,14,24,13.00
2014,09,25,14,25,13.00
2014,09,25,14,26,13.10
2014,09,25,14,27,13.20
2014,09,25,14,28,13.30
2014,09,25,14,29,13.30
2014,09,25,14,30,13.40
2014,09,25,14,31,13.40
2014,09,25,14,32,13.30
2014,09,25,14,33,13.30
2014,09,25,14,34,13.30
2014,09,25,14,35,13.20
2014,09,25,14,36,13.20
2014,09,25,14,37,13.20
2014,09,25,14,38,13.20
2014,09,25,14,39,13.30
2014,09,25,14,40,13.40
2014,09,25,14,41,13.50
2014,09,25,14,42,13.50
2014,09,25,14,43,13.60
2014,09,25,14,44,13.80
2014,09,25,14,45,13.80
2014,09,25,14,46,13.90
2014,09,25,14,47,13.80
2014,09,25,14,48,13.80
2014,09,25,14,49,13.90
2014,09,25,14,50,14.00
2014,09,25,14,51,14.20
2014,09,25,14,52,14.20
2014,09,25,14,53,14.30
2014,09,25,14,54,14.30
2014,09,25,14,55,14.30
2014,09,25,14,56,14.20
2014,09,25,14,57,14.20
2014,09,25,14,58,14.10
2014,09,25,14,59,14.10
2014,09,25,15,00,14.00
2014,09,25,15,01,14.00
2014,09,25,15,02,13.90
2014,09,25,15,03,13.80
2014,09,25,15,04,13.70
2014,09,25,15,05,13.70
2014,09,25,15,06,13.70
2014,09,25,15,07,13.80
2014,09,25,15,08,13.80
2014,09,25,15,09,13.90
2014,09,25,15,10,14.00
2014,09,25,15,11,14.10
2014,09,25,15,12,14.20
2014,09,25,15,13,14.20
2014,09,25,15,14,14.20
2014,09,25,15,15,14.30
2014,09,25,15,16,14.40
2014,09,25,15,17,14.50
2014,09,25,15,18,14.60
2014,09,25,15,19,14.70
2014,09,25,15,20,14.90
2014,09,25,15,21,15.00
2014,09,25,15,22,15.10
2014,09,25,15,23,15.20
2014,09,25,15,24,15.40
2014,09,25,15,25,15.50
2014,09,25,15,26,15.70
2014,09,25,15,27,16.00
2014,09,25,15,28,16.20
2014,09,25,15,29,16.50
2014,09,25,15,30,16.70
2014,09,25,15,31,16.80
2014,09,25,15,32,17.00
2014,09,25,15,33,17.10
2014,09,25,15,34,17.20
2014,09,25,15,35,17.30
2014,09,25,15,36,17.30
2014,09,25,15,37,17.30
2014,09,25,15,38,17.30
2014,09,25,15,39,17.30
2014,09,25,15,40,17.30
2014,09,25,15,41,17.30
2014,09,25,15,42,17.30
2014,09,25,15,43,17.30
2014,09,25,15,44,17.30
2014,09,25,15,45,17.30
2014,09,25,15,46,17.30
2014,09,25,15,47,17.40
2014,09,25,15,48,17.30
2014,09,25,15,49,17.30
2014,09,25,15,50,17.30
2014,09,25,15,51,17.30
2014,09,25,15,52,17.40
2014,09,25,15,53,17.40
2014,09,25,15,54,17.40
2014,09,25,15,55,17.40
2014,09,25,15,56,17.40
2014,09,25,15,57,17.40
2014,09,25,15,58,17.40
2014,09,25,15,59,17.40
2014,09,25,16,00,17.40
2014,09,25,16,01,17.40
2014,09,25,16,02,17.40
2014,09,25,16,03,17.40
2014,09,25,16,04,17.40
2014,09,25,16,05,17.40
2014,09,25,16,06,17.40
2014,09,25,16,07,17.50
2014,09,25,16,08,17.40
2014,09,25,16,09,17.50
2014,09,25,16,10,17.50
2014,09,25,16,11,17.50
2014,09,25,16,12,17.50
2014,09,25,16,13,17.50
2014,09,25,16,14,17.50
2014,09,25,16,15,17.50
2014,09,25,16,16,17.50
2014,09,25,16,17,17.50
2014,09,25,16,18,17.30
2014,09,25,16,19,16.80
2014,09,25,16,20,16.40
2014,09,25,16,21,16.10
2014,09,25,16,22,15.80
2014,09,25,16,23,15.50
2014,09,25,16,24,15.20
2014,09,25,16,25,15.00
2014,09,25,16,26,14.80
2014,09,25,16,27,14.70
2014,09,25,16,28,14.60
2014,09,25,16,29,14.60
2014,09,25,16,30,14.60
2014,09,25,16,31,14.60
2014,09,25,16,32,14.50
2014,09,25,16,33,14.50
2014,09,25,16,34,14.40
2014,09,25,16,35,14.30
2014,09,25,16,36,14.20
2014,09,25,16,37,14.20
2014,09,25,16,38,14.20
2014,09,25,16,39,14.20
2014,09,25,16,40,14.10
2014,09,25,16,41,14.10
2014,09,25,16,42,14.10
2014,09,25,16,43,14.10
2014,09,25,16,44,14.10
2014,09,25,16,45,14.10
2014,09,25,16,46,14.10
2014,09,25,16,47,14.10
2014,09,25,16,48,14.10
2014,09,25,16,49,14.10
2014,09,25,16,50,14.20
2014,09,25,16,51,14.20
2014,09,25,16,52,14.20
2014,09,25,16,53,14.20
2014,09,25,16,54,14.20
2014,09,25,16,55,14.30
2014,09,25,16,56,14.30
2014,09,25,16,57,14.30
2014,09,25,16,58,14.30
2014,09,25,16,59,14.30
2014,09,25,17,00,14.30
2014,09,25,17,01,14.30
2014,09,25,17,02,14.30
2014,09,25,17,03,14.30
2014,09,25,17,04,14.30
2014,09,25,17,05,14.30
